Weather History for Columbia, MO

Change the Weather History Date:

Thursday, February 28, 2013

  Actual Average Record
Temperature  
Mean Temperature 31 °F 39 °F  
Max Temperature 33 °F 49 °F 75 °F (1972)
Min Temperature 29 °F 29 °F -3 °F (1962)
Degree Days  
Heating Degree Days 34 26  
Month to date heating degree days 855 857  
Since 1 July heating degree days 3583 3946  
Cooling Degree Days 0 0  
Month to date cooling degree days 0 0  
Year to date cooling degree days 1 0  
Moisture  
Dew Point 25 °F    
Average Humidity 77    
Maximum Humidity 85    
Minimum Humidity 69    
Precipitation  
Precipitation T in 0.09 in 0.83 in (1900)
Month to date precipitation 3.86 2.25  
Year to date precipitation 6.24 4.17  
Snow  
Snow 0.00 in 0.10 in 6.40 in (1900)
Month to date snowfall 20.5 4.7  
Since 1 July snowfall 24.7 16.1  
Snow Depth 0.00 in    
Sea Level Pressure  
Sea Level Pressure 30.07 in    
Wind  
Wind Speed 11 mph (WNW)    
Max Wind Speed 17 mph    
Max Gust Speed 22 mph    
Visibility 9 miles    
Events Snow    
T = Trace of Precipitation, MM = Missing Value Source: NWS Daily Summary

Daily Weather History Graph

Daily Weather History Graph

Search for Another Location

Airport:

Trip Planner

Search our weather history database for the weather conditions in past years. The results will help you decide how hot, cold, wet, or windy it might be!

Date:

Astronomy

Feb. 28, 2013 Rise Set
Actual Time 6:42 AM CST 6:00 PM CST
Civil Twilight 6:15 AM CST 6:27 PM CST
Nautical Twilight 5:44 AM CST 6:58 PM CST
Astronomical Twilight 5:13 AM CST 7:29 PM CST
Moon 9:25 PM CST (2/28) 7:54 AM CST (2/28)
Length of Visible Light 12h 12m
Length of Day
11h 18m
Waning Gibbous, 90% of the Moon is Illuminated
Feb 28
Waning Gibbous
Mar 4
Last Quarter
Mar 11
New
Mar 19
First Quarter
Mar 27
Full

Hourly Weather History & Observations

Time (CST) Temp. Windchill Dew Point Humidity Pressure Visibility Wind Dir Wind Speed Gust Speed Precip Events Conditions
12:14 AM 28.9 °F 21.1 °F 25.0 °F 85% 29.94 in 10.0 mi WNW 8.1 mph - N/A   Overcast
12:23 AM 28.9 °F 21.1 °F 24.1 °F 82% 29.95 in 10.0 mi WNW 8.1 mph - N/A   Overcast
12:35 AM 28.9 °F 21.9 °F 24.1 °F 82% 29.94 in 10.0 mi WNW 6.9 mph - N/A   Overcast
12:45 AM 28.9 °F 21.9 °F 24.1 °F 82% 29.95 in 10.0 mi WNW 6.9 mph - N/A   Overcast
12:52 AM 28.4 °F 21.2 °F 24.8 °F 86% 29.95 in 10.0 mi West 6.9 mph - N/A   Overcast
12:54 AM 28.4 °F 21.2 °F 24.8 °F 86% 29.95 in 10.0 mi West 6.9 mph - N/A   Overcast
1:34 AM 30.0 °F 22.4 °F 25.0 °F 82% 29.95 in 10.0 mi WNW 8.1 mph - N/A   Overcast
1:54 AM 30.0 °F 21.7 °F 25.0 °F 82% 29.97 in 10.0 mi WNW 9.2 mph - N/A   Overcast
2:14 AM 30.0 °F 20.5 °F 25.0 °F 82% 29.94 in 10.0 mi WNW 11.5 mph - N/A   Overcast
2:54 AM 30.9 °F 22.2 °F 25.0 °F 79% 29.96 in 10.0 mi WNW 10.4 mph - N/A   Overcast
3:54 AM 30.9 °F 21.2 °F 25.0 °F 79% 29.98 in 10.0 mi WNW 12.7 mph - N/A   Overcast
4:54 AM 30.9 °F 20.7 °F 25.0 °F 79% 30.00 in 10.0 mi WNW 13.8 mph - N/A   Overcast
5:43 AM 30.0 °F 20.0 °F 24.1 °F 79% 29.99 in 10.0 mi WNW 12.7 mph - N/A   Overcast
5:54 AM 30.0 °F 20.5 °F 24.1 °F 79% 30.03 in 10.0 mi WNW 11.5 mph - N/A   Overcast
6:01 AM 30.0 °F 20.0 °F 24.1 °F 79% 30.00 in 10.0 mi WNW 12.7 mph - N/A   Overcast
6:51 AM 28.4 °F 17.5 °F 24.8 °F 86% 30.02 in 10.0 mi NW 13.8 mph - N/A   Overcast
6:54 AM 28.9 °F 18.6 °F 24.1 °F 82% 30.05 in 10.0 mi NW 12.7 mph - N/A   Overcast
7:54 AM 28.9 °F 18.2 °F 23.0 °F 78% 30.08 in 9.0 mi WNW 13.8 mph - N/A   Overcast
8:54 AM 28.9 °F 17.7 °F 23.0 °F 78% 30.09 in 9.0 mi NW 15.0 mph - N/A   Overcast
9:54 AM 30.0 °F 20.5 °F 24.1 °F 79% 30.10 in 9.0 mi NW 11.5 mph - N/A   Overcast
10:54 AM 30.0 °F 20.5 °F 24.1 °F 79% 30.12 in 10.0 mi WNW 11.5 mph - N/A   Overcast
11:54 AM 32.0 °F 22.5 °F 25.0 °F 75% 30.12 in 10.0 mi WNW 12.7 mph - N/A   Overcast
12:38 PM 32.0 °F 22.1 °F 25.0 °F 75% 30.09 in 10.0 mi WNW 13.8 mph - N/A   Overcast
12:54 PM 32.0 °F 23.6 °F 25.0 °F 75% 30.11 in 10.0 mi WNW 10.4 mph - N/A   Overcast
1:54 PM 33.1 °F 22.6 °F 25.0 °F 72% 30.11 in 10.0 mi NW 16.1 mph - N/A   Overcast
2:54 PM 33.1 °F 23.4 °F 26.1 °F 75% 30.12 in 5.0 mi WNW 13.8 mph - 0.00 in Snow Light Snow
3:15 PM 33.1 °F 24.9 °F 27.0 °F 78% 30.10 in 2.5 mi WNW 10.4 mph - 0.00 in Snow Light Snow
3:54 PM 33.1 °F 24.4 °F 27.0 °F 78% 30.12 in 2.5 mi WNW 11.5 mph - 0.00 in   Haze
3:58 PM 33.1 °F 24.4 °F 27.0 °F 78% 30.10 in 6.0 mi WNW 11.5 mph - N/A   Haze
4:54 PM 33.1 °F 23.9 °F 27.0 °F 78% 30.13 in 6.0 mi WNW 12.7 mph - 0.00 in Snow Light Snow
5:03 PM 32.0 °F 22.5 °F 27.0 °F 82% 30.11 in 2.5 mi NW 12.7 mph - 0.00 in Snow Light Snow
5:54 PM 32.0 °F 24.2 °F 26.1 °F 79% 30.14 in 8.0 mi NW 9.2 mph - 0.00 in   Overcast
6:10 PM 32.0 °F 24.2 °F 25.0 °F 75% 30.12 in 10.0 mi NW 9.2 mph - N/A   Overcast
6:54 PM 32.0 °F 24.8 °F 26.1 °F 79% 30.15 in 9.0 mi WNW 8.1 mph - N/A   Overcast
7:54 PM 32.0 °F 24.8 °F 26.1 °F 79% 30.15 in 10.0 mi WNW 8.1 mph - 0.00 in   Overcast
8:54 PM 32.0 °F 23.6 °F 25.0 °F 75% 30.15 in 10.0 mi NW 10.4 mph - N/A   Overcast
9:54 PM 30.9 °F 23.5 °F 25.0 °F 79% 30.16 in 10.0 mi NW 8.1 mph - N/A   Overcast
10:28 PM 30.9 °F 22.8 °F 25.0 °F 79% 30.13 in 10.0 mi NW 9.2 mph - N/A   Overcast
10:54 PM 30.9 °F 22.2 °F 25.0 °F 79% 30.16 in 10.0 mi NW 10.4 mph - N/A   Overcast
11:54 PM 30.9 °F 22.8 °F 24.1 °F 76% 30.15 in 10.0 mi NW 9.2 mph - N/A   Overcast